This is the latest recevied weather packets stored in our database for station/object KD8DNS. If no packets are shown the sender has not sent any weather packets the latest 10 day(s).
| Time | Temp. | Humidity | Pressure | Rain* | Wind** | Luminosity | Snow |
|---|---|---|---|---|---|---|---|
| 1788564793 | 24.44° C | 98% | 1016.9 hPa | 0 mm | - | 12 W/m² | - |
| 1788564489 | 24.44° C | 98% | 1016.7 hPa | 0 mm | - | 16 W/m² | - |
| 1788564186 | 24.44° C | 98% | 1016.5 hPa | 0 mm | - | 19 W/m² | - |
| 1788563884 | 24.44° C | 98% | 1016.5 hPa | 0 mm | - | 24 W/m² | - |
| 1788563575 | 24.44° C | 98% | 1016 hPa | 0 mm | - | 32 W/m² | - |
| 1788563271 | 24.44° C | 99% | 1016 hPa | 0 mm | - | 49 W/m² | - |
| 1788562959 | 24.44° C | 99% | 1016 hPa | 0 mm | - | 67 W/m² | - |
| 1788562658 | 24.44° C | 99% | 1016.1 hPa | 0 mm | - | 73 W/m² | - |
| 1788562352 | 24.44° C | 99% | 1016.3 hPa | 0 mm | - | 61 W/m² | - |
| 1788562051 | 23.89° C | 99% | 1016.3 hPa | 0 mm | - | 40 W/m² | - |
| 1788561747 | 23.89° C | 98% | 1016.4 hPa | 0 mm | - | 24 W/m² | - |
| 1788561446 | 23.89° C | 98% | 1015.9 hPa | 0 mm | - | 15 W/m² | - |
| 1788561142 | 23.89° C | 98% | 1016.1 hPa | 0 mm | - | 10 W/m² | - |
| 1788560837 | 23.33° C | 98% | 1016.3 hPa | 0 mm | - | 8 W/m² | - |
| 1788560533 | 23.89° C | 98% | 1016.2 hPa | 0 mm | - | 8 W/m² | - |
| 1788560262 | 23.89° C | 98% | 1015.8 hPa | 0 mm | - | 9 W/m² | - |
| 1788559927 | 23.89° C | 98% | 1016.2 hPa | 0 mm | - | 14 W/m² | - |
| 1788559621 | 23.89° C | 98% | 1016.4 hPa | 0 mm | - | 18 W/m² | - |
| 1788559316 | 23.89° C | 98% | 1016.9 hPa | 0 mm | - | 25 W/m² | - |
| 1788559016 | 23.89° C | 97% | 1017.1 hPa | 0 mm | - | 34 W/m² | - |
| 1788558713 | 23.89° C | 97% | 1016.8 hPa | 0 mm | - | 36 W/m² | - |
| 1788558441 | 23.89° C | 97% | 1016.8 hPa | 0 mm | - | 40 W/m² | - |
| 1788558109 | 23.33° C | 96% | 1016.9 hPa | 0 mm | - | 30 W/m² | - |
| 1788557806 | 23.33° C | 95% | 1017.1 hPa | 0 mm | - | 14 W/m² | - |
| 1788557503 | 23.89° C | 95% | 1017.3 hPa | 0 mm | - | 12 W/m² | - |
* Rain latest hour (hover to see other rain measurements)
** Current wind speed in m/s (hover to see current wind gust speed)